Time[GMT],air_temperature[C](-3m),wind_speed[m/s](-4m),wind_gust[m/s](-4m),wind_direction[degrees](-4m),visibility[m](-3m)
2004-03-22 13:00,-5.1,11.1,13.1,318,2595
2004-03-22 14:00,-5.1,9.7,12.2,312,2917
2004-03-22 15:00,-4.6,11.1,13.7,307,2911
2004-03-22 16:00,-4.1,10.2,12.2,301,2799
2004-03-22 17:00,-3.5,10.0,13.8,303,2789
2004-03-22 18:00,-3.2,11.6,13.8,317,2637
2004-03-22 19:00,-3.1,10.1,13.1,312,2549
2004-03-22 20:00,-2.9,9.4,11.1,309,2119
2004-03-22 21:00,-3.1,10.7,13.9,321,1475
2004-03-22 22:00,-2.9,9.4,11.2,318,2716
2004-03-22 23:00,-2.8,8.3,10.2,323,2958
2004-03-23 00:00,-3.0,8.4,10.2,316,2960
2004-03-23 01:00,-3.2,8.1,10.0,318,2927
2004-03-23 02:00,-3.4,7.9,9.5,317,2959
2004-03-23 03:00,-3.6,7.8,9.6,324,2960
2004-03-23 04:00,-4.1,6.2,7.9,313,2957
2004-03-23 05:00,-4.5,7.0,8.3,320,2959
2004-03-23 06:00,-5.0,5.5,7.0,323,2960
2004-03-23 07:00,-5.1,5.3,6.4,303,2960
2004-03-23 08:00,-5.0,5.8,8.1,306,2960
2004-03-23 09:00,-4.7,4.9,6.3,281,2961
2004-03-23 10:00,-4.8,5.7,7.3,263,2961
2004-03-23 11:00,-4.6,4.9,6.5,276,2950
2004-03-23 12:00,-4.5,4.7,6.2,271,2933
2004-03-23 13:00,-4.3,6.3,8.3,250,2876
2004-03-23 14:00,-3.8,5.8,7.4,243,2722
2004-03-23 15:00,-3.0,7.0,8.4,223,2812
2004-03-23 16:00,-2.0,6.9,8.0,227,2718
2004-03-23 17:00,-0.8,6.5,8.1,213,2893
2004-03-23 18:00,0.5,8.4,10.7,227,2870
2004-03-23 19:00,1.1,7.1,9.1,216,2883
2004-03-23 20:00,2.1,7.1,8.7,216,2951
2004-03-23 21:00,2.8,6.5,7.8,213,2861
2004-03-23 22:00,3.1,7.5,9.2,210,2811
2004-03-23 23:00,2.9,8.6,10.0,213,2951
2004-03-24 00:00,2.4,9.9,11.6,208,2955
2004-03-24 01:00,2.0,9.1,10.9,217,2956
2004-03-24 02:00,2.1,7.2,8.7,224,2955
2004-03-24 03:00,2.1,8.4,9.9,241,2954
2004-03-24 04:00,1.6,9.4,11.0,247,2910
2004-03-24 05:00,1.7,8.2,10.1,232,2931
2004-03-24 06:00,2.1,8.9,10.9,253,2783
2004-03-24 07:00,2.1,7.0,8.3,265,2916
2004-03-24 08:00,1.6,7.2,8.7,303,2928
2004-03-24 09:00,1.3,5.4,6.0,297,2957
2004-03-24 10:00,1.1,5.2,6.3,311,2960
2004-03-24 11:00,1.1,5.6,7.2,324,2960
2004-03-24 12:00,1.1,5.3,6.2,325,2894
2004-03-24 13:00,1.2,4.5,5.0,338,2959
2004-03-24 14:00,1.7,2.1,3.3,347,2959
2004-03-24 15:00,2.1,2.1,3.2, 67,2947
2004-03-24 16:00,1.6,2.6,2.9, 87,2898
2004-03-24 17:00,1.5,3.1,3.9,114,2954
2004-03-24 18:00,2.0,4.8,5.5,123,2912
2004-03-24 19:00,2.3,6.2,7.1,135,2874
2004-03-24 20:00,2.5,6.9,8.0,144,2895
2004-03-24 21:00,2.7,8.2,9.4,141,2948
2004-03-24 22:00,2.9,8.3,10.1,135,2943
2004-03-24 23:00,3.1,7.7,9.6,143,2930
2004-03-25 00:00,3.2,7.5,8.9,150,2910
2004-03-25 01:00,3.0,6.6,7.7,172,2849
2004-03-25 02:00,3.1,7.0,8.1,183,2844
2004-03-25 03:00,3.1,5.9,6.8,183,2849
2004-03-25 04:00,3.2,5.4,6.3,180,2855
2004-03-25 05:00,3.3,5.9,6.8,192,2872
2004-03-25 06:00,3.3,6.0,7.1,188,2850
2004-03-25 07:00,3.2,4.9,5.7,195,2861
2004-03-25 08:00,3.3,4.6,5.3,200,2880
2004-03-25 09:00,3.3,5.6,6.5,198,2865
2004-03-25 10:00,3.5,3.8,4.8,174,2856
2004-03-25 11:00,3.3,4.5,4.9,171,2831
2004-03-25 12:00,3.7,6.4,7.2,183,2841
2004-03-25 13:00,3.7,7.2,8.0,176,2815
2004-03-25 14:00,3.9,7.2,8.1,173,2852
2004-03-25 15:00,3.8,6.5,7.6,167,2835
2004-03-25 16:00,4.0,6.7,7.4,170,2825
2004-03-25 17:00,4.1,7.2,8.3,161,2840
2004-03-25 18:00,4.2,7.8,8.8,167,2829
2004-03-25 19:00,4.8,8.4,9.4,171,2871
2004-03-25 20:00,5.2,8.2,9.2,171,2922
2004-03-25 21:00,5.6,7.7,8.8,184,2885
2004-03-25 22:00,4.5,5.9,6.8,179,2697
2004-03-25 23:00,4.8,6.6,7.6,178,2801
2004-03-26 00:00,5.0,6.7,8.1,184,2641
2004-03-26 01:00,4.5,5.1,6.1,166,2740
2004-03-26 02:00,4.2,4.3,5.4,166,2716
2004-03-26 03:00,4.0,4.8,5.8,157,2566
2004-03-26 04:00,4.6,6.8,7.8,174,2696
2004-03-26 05:00,4.3,6.7,7.6,172,2654
2004-03-26 06:00,4.2,4.3,5.2,170,2721
2004-03-26 07:00,4.1,6.2,6.7,172,2728
2004-03-26 08:00,4.0,4.9,5.9,168,2646
2004-03-26 09:00,4.3,5.4,6.2,176,2671
2004-03-26 10:00,4.0,5.6,6.5,178,2551
2004-03-26 11:00,4.0,5.7,6.4,177,2336
2004-03-26 12:00,3.8,3.7,4.3,172,2209
2004-03-26 13:00,4.0,3.7,4.1,177,2262
2004-03-26 14:00,3.9,4.0,4.7,170,2388
2004-03-26 15:00,4.1,3.6,4.1,178,2286
2004-03-26 16:00,4.1,4.4,4.9,159,2124
2004-03-26 17:00,4.2,4.5,5.0,165,2285
2004-03-26 18:00,4.9,6.3,7.6,165,2198
2004-03-26 19:00,4.8,6.4,7.4,150,2352
2004-03-26 20:00,5.3,6.8,8.1,157,2638
2004-03-26 21:00,5.6,7.9,9.0,163,2632
2004-03-26 22:00,5.7,7.3,8.8,169,2742
2004-03-26 23:00,6.0,8.1,9.2,174,2806
2004-03-27 00:00,5.7,8.7,9.8,176,2709
2004-03-27 01:00,5.3,8.4,9.4,174,2619
2004-03-27 02:00,4.8,8.1,9.3,177,2486
2004-03-27 03:00,4.7,6.6,7.4,184,2551
2004-03-27 04:00,5.1,7.2,8.0,180,2649
2004-03-27 05:00,5.3,8.9,10.9,176,2698
2004-03-27 06:00,4.6,5.6,7.4,178,2638
2004-03-27 07:00,4.9,6.5,7.4,174,2713
2004-03-27 08:00,4.8,6.1,7.0,185,2296
2004-03-27 09:00,4.7,5.6,6.3,185,2409
2004-03-27 10:00,4.9,6.3,7.2,179,2142
2004-03-27 11:00,4.9,5.5,6.4,186,1673
2004-03-27 12:00,4.6,4.1,4.5,208,2015
2004-03-27 13:00,4.6,2.2,3.2,188,1886
2004-03-27 14:00,4.6,2.4,3.0,218,2251
2004-03-27 15:00,5.2,3.3,3.9,234,1815
2004-03-27 16:00,,,,,
2004-03-27 17:00,5.1,1.5,2.5,194, 261
2004-03-27 18:00,6.7,1.2,1.9, 46,2540
2004-03-27 19:00,7.2,2.3,2.6, 47,2598
2004-03-27 20:00,5.7,5.6,6.4, 55,2837
2004-03-27 21:00,5.1,3.9,4.9, 64,2844
2004-03-27 22:00,5.5,6.0,7.3, 47,2855
2004-03-27 23:00,5.3,8.1,9.5, 49,2885
2004-03-28 00:00,5.2,7.5,9.0, 36,2898
2004-03-28 01:00,5.5,9.9,11.4, 27,2881
2004-03-28 02:00,5.4,8.5,10.1, 14,2907
2004-03-28 03:00,4.9,7.8,9.2, 10,2909
2004-03-28 04:00,4.9,7.9,9.2,  7,2933
2004-03-28 05:00,4.9,10.0,11.6, 16,2912
2004-03-28 06:00,4.7,9.7,11.6, 20,2915
2004-03-28 07:00,4.7,10.3,12.1, 13,2923
2004-03-28 08:00,4.3,9.4,11.7, 19,2890
2004-03-28 09:00,4.2,9.6,11.3, 15,2910
2004-03-28 10:00,4.2,10.6,13.1, 21,2862
2004-03-28 11:00,4.0,10.1,12.3, 23,2836
2004-03-28 12:00,3.8,10.0,11.8, 25,2853
2004-03-28 13:00,3.6,11.1,14.1, 35,2793
2004-03-28 14:00,3.2,11.7,14.5, 38,2817
2004-03-28 15:00,2.8,11.3,14.1, 44,2822
2004-03-28 16:00,2.7,9.5,11.9, 45,2819
2004-03-28 17:00,2.5,10.1,12.4, 41,2850
2004-03-28 18:00,2.4,10.0,11.8, 50,2831
2004-03-28 19:00,2.6,9.2,11.6, 62,2865
2004-03-28 20:00,2.5,7.9,9.7, 65,2535
2004-03-28 21:00,2.5,7.8,9.6, 73,2737
2004-03-28 22:00,2.6,6.8,8.7, 75,2752
2004-03-28 23:00,2.7,6.1,7.3, 78,2813
2004-03-29 00:00,2.8,5.1,6.5, 73,2871
2004-03-29 01:00,2.7,4.1,5.3, 38,2839
2004-03-29 02:00,2.7,4.2,5.4, 50,2840
2004-03-29 03:00,2.6,5.8,7.9, 63,2829
2004-03-29 04:00,2.6,6.6,8.2, 67,2822
2004-03-29 05:00,2.5,7.5,9.6, 60,2820
2004-03-29 06:00,2.4,8.8,10.2, 57,2819
2004-03-29 07:00,1.8,8.8,10.6, 64,2789
2004-03-29 08:00,1.7,8.2,9.8, 59,2754
2004-03-29 09:00,1.6,7.2,8.5, 54,2783
2004-03-29 10:00,1.5,6.7,8.3, 49,2766
2004-03-29 11:00,1.5,7.0,8.9, 45,2532
2004-03-29 12:00,1.6,7.9,9.2, 48,2848
2004-03-29 13:00,1.5,7.6,9.2, 51,2640
2004-03-29 14:00,1.6,7.2,8.8, 61,2796
2004-03-29 15:00,1.5,6.4,7.9, 49,2811
2004-03-29 16:00,1.6,5.7,6.7, 55,2858
2004-03-29 17:00,1.7,6.0,6.9, 56,2804
2004-03-29 18:00,1.5,5.6,6.5, 53,2903
2004-03-29 19:00,1.4,5.5,6.7, 48,2778
2004-03-29 20:00,1.6,5.3,6.3, 61,2919
2004-03-29 21:00,1.4,5.0,6.1, 66,2944
2004-03-29 22:00,1.3,4.3,5.4, 77,2875
2004-03-29 23:00,0.9,4.1,5.4, 82,2941
2004-03-30 00:00,0.6,4.0,5.1,102,2946
2004-03-30 01:00,0.5,3.8,5.4, 96,2941
2004-03-30 02:00,0.3,3.7,5.9, 99,2883
2004-03-30 03:00,0.2,4.2,6.0,100,2924
2004-03-30 04:00,0.3,3.5,6.0,109,2895
2004-03-30 05:00,0.3,3.1,4.0, 97,2846
2004-03-30 06:00,0.4,3.4,5.1, 87,2814
2004-03-30 07:00,0.3,2.2,3.9,115,2822
2004-03-30 08:00,0.3,3.6,5.2,127,2889
2004-03-30 09:00,0.4,2.4,3.8, 81,2877
2004-03-30 10:00,0.5,2.6,3.6,100,2865
2004-03-30 11:00,0.5,2.7,6.0, 69,2866
2004-03-30 12:00,0.5,2.3,3.6,108,2852
2004-03-30 13:00,0.7,2.6,3.8, 91,2820
2004-03-30 14:00,1.0,3.6,4.7,127,2862
2004-03-30 15:00,1.1,3.2,4.2,108,2849
2004-03-30 16:00,1.4,1.9,2.5,117,2859
2004-03-30 17:00,1.6,1.4,2.3,145,2826
2004-03-30 18:00,1.7,1.6,2.4,118,2862
2004-03-30 19:00,1.8,1.9,2.8,123,2859
2004-03-30 20:00,1.9,2.7,3.6,111,2873
2004-03-30 21:00,2.0,2.4,3.1, 87,2852
2004-03-30 22:00,2.1,3.1,4.0,108,2886
2004-03-30 23:00,2.3,4.0,4.8,107,2870
2004-03-31 00:00,2.4,5.5,6.5,110,2805
2004-03-31 01:00,2.5,5.5,6.3,112,2650
2004-03-31 02:00,2.7,4.9,6.0,120,2537
2004-03-31 03:00,2.8,4.4,5.2,125,2638
2004-03-31 04:00,2.8,3.2,3.8,143,2701
2004-03-31 05:00,2.9,2.6,3.5,128,2719
2004-03-31 06:00,3.1,1.9,2.4, 85,2773
2004-03-31 07:00,3.1,2.2,2.8, 33,2831
2004-03-31 08:00,3.0,2.8,3.5, 89,2846
2004-03-31 09:00,2.7,4.4,5.4, 94,2646
2004-03-31 10:00,2.7,4.3,5.0, 83,2545
2004-03-31 11:00,2.8,4.6,5.5, 78,2304
2004-03-31 12:00,3.0,4.9,6.1, 66,1617
2004-03-31 13:00,3.2,4.1,4.9, 71,1245
2004-03-31 14:00,3.3,5.6,6.5, 69,2363
2004-03-31 15:00,3.4,5.8,6.9, 75,2573
2004-03-31 16:00,3.4,5.1,6.1, 72,2275
2004-03-31 17:00,3.3,6.2,7.3, 55,2375
2004-03-31 18:00,3.4,5.1,6.1, 55,2552
2004-03-31 19:00,3.2,4.6,5.6, 29,1132
2004-03-31 20:00,3.2,5.5,6.3, 36,2349
2004-03-31 21:00,3.1,6.4,7.8, 37,1777
2004-03-31 22:00,3.0,7.1,9.6, 43,1312
2004-03-31 23:00,3.0,7.7,9.1, 46, 863
2004-04-01 00:00,3.0,8.6,9.9, 63,1505
2004-04-01 01:00,3.0,7.7,8.8, 56,1877
2004-04-01 02:00,3.0,6.5,7.8, 53,1615
2004-04-01 03:00,3.0,7.9,9.5, 53,1892
2004-04-01 04:00,3.1,8.0,9.4, 57,1826
2004-04-01 05:00,3.2,6.1,7.3, 50,1839
2004-04-01 07:00,3.0,6.4,7.5,  4,1665
2004-04-01 08:00,3.1,7.3,8.4, 25,2076
2004-04-01 09:00,3.2,6.9,8.1, 37,2650
2004-04-01 10:00,3.3,5.8,6.5, 43,2107
2004-04-01 11:00,3.4,7.4,8.6, 37,2416
2004-04-01 12:00,3.5,7.2,8.7, 35,1623
2004-04-01 13:00,3.5,7.2,8.5, 45,1081
2004-04-01 14:00,3.7,7.7,9.2, 59, 834
2004-04-01 15:00,3.8,8.6,10.7, 61,1840
2004-04-01 16:00,4.2,9.8,11.4, 68,2015
2004-04-01 17:00,4.3,9.8,11.2, 67,1254
2004-04-01 18:00,4.8,11.7,14.5, 78,1168
2004-04-01 19:00,4.5,12.9,15.1, 72,2088
2004-04-01 20:00,4.1,12.0,14.1, 65, 869
2004-04-01 21:00,4.0,12.8,14.7, 64, 757
2004-04-01 22:00,4.0,15.2,18.8, 66, 696
2004-04-01 23:00,3.9,13.1,15.5, 81, 558
2004-04-02 00:00,4.2,14.2,17.5, 77,1093
2004-04-02 01:00,4.3,15.3,19.7, 74,1931
2004-04-02 02:00,4.4,14.0,17.0, 72,1977
2004-04-02 03:00,4.1,13.8,17.6, 71,1941
2004-04-02 04:00,,,,,
2004-04-02 05:00,3.7,12.1,15.7, 68,1122
2004-04-02 06:00,3.3,11.2,14.4, 59,1407
2004-04-02 07:00,3.2,11.8,14.9, 61,2078
2004-04-02 08:00,3.3,11.0,13.4, 57,2023
2004-04-02 09:00,3.2,9.9,12.0, 41,1578
2004-04-02 10:00,3.3,9.4,11.8, 41,1419
2004-04-02 11:00,3.2,9.4,10.7, 38,
2004-04-02 12:00,3.1,9.5,11.3, 39,1981
2004-04-02 13:00,3.1,9.5,11.4, 43,1454
2004-04-02 14:00,2.9,10.7,13.1, 47,2011
2004-04-02 15:00,2.8,8.6,10.8, 47,2417
2004-04-02 16:00,2.7,9.2,10.8, 40,2227
2004-04-02 17:00,2.8,9.0,10.7, 36,2424
2004-04-02 18:00,2.8,8.3,10.0, 27,2253
2004-04-02 19:00,2.8,8.4,9.8, 24,2009
2004-04-02 20:00,2.8,7.9,9.3, 23,1684
2004-04-02 21:00,2.8,7.4,9.2, 22,1521
2004-04-02 22:00,2.8,8.4,9.8, 20,1334
2004-04-02 23:00,2.8,8.9,11.0, 19,1357
2004-04-03 00:00,2.9,7.9,9.1, 20,1662
2004-04-03 01:00,2.9,6.9,8.0, 18,2393
2004-04-03 02:00,3.0,6.5,7.4, 10,2658
2004-04-03 03:00,3.0,6.6,7.6,  8,1695
2004-04-03 04:00,3.0,6.4,7.4,  5,1010
2004-04-03 05:00,3.0,6.2,7.2, 19,1098
2004-04-03 06:00,3.0,5.7,6.9, 21,1292
2004-04-03 07:00,2.9,5.5,6.6, 19,1195
2004-04-03 08:00,2.8,6.3,7.3, 20,1658
2004-04-03 09:00,,,,,
2004-04-03 10:00,2.8,5.3,6.5, 26,1636
2004-04-03 11:00,2.7,6.0,7.0, 22,1584
2004-04-03 12:00,2.6,7.0,8.2, 26,2513
2004-04-03 13:00,2.5,7.4,8.3, 28,2497
2004-04-03 14:00,2.6,6.8,7.9, 30, 945
2004-04-03 15:00,2.7,7.5,8.6, 26,1311
2004-04-03 16:00,2.8,8.0,9.0, 28,1985
2004-04-03 17:00,2.9,7.6,8.7, 26,1788
2004-04-03 18:00,2.9,7.5,8.9, 34,1761
2004-04-03 19:00,2.8,6.7,7.5, 22,1124
2004-04-03 20:00,2.7,8.1,9.2, 23,1187
2004-04-03 21:00,2.8,7.5,8.6, 25,2844
2004-04-03 22:00,3.0,5.9,7.0, 25,2935
2004-04-03 23:00,2.9,7.1,8.1, 35,2915
2004-04-04 00:00,2.8,4.8,6.0, 32,2143
2004-04-04 01:00,2.8,4.1,4.9,  8,1669
2004-04-04 02:00,2.9,4.0,4.7,357, 741
2004-04-04 03:00,2.9,3.4,3.9,  0,2352
2004-04-04 04:00,3.0,3.3,4.1,359,2476
2004-04-04 05:00,3.1,2.8,3.4, 16,2591
2004-04-04 06:00,3.2,2.2,2.7,293,1889
2004-04-04 07:00,3.3,2.2,2.8,309,2478
2004-04-04 08:00,3.3,1.9,2.6,302,2369
2004-04-04 09:00,3.4,2.4,2.7,295,2365
2004-04-04 10:00,3.4,1.9,2.4,280,2175
2004-04-04 11:00,3.4,2.7,3.4,300,2289
2004-04-04 12:00,3.4,1.4,1.7,323,2113
2004-04-04 13:00,3.6,0.8,1.1,290,2212
2004-04-04 14:00,3.8,0.1,0.4,272,2293
2004-04-04 15:00,4.0,1.9,2.3,230,2331
2004-04-04 16:00,3.8,1.5,1.9,209,1791
2004-04-04 17:00,4.0,1.6,1.9,177,2134
2004-04-04 18:00,4.4,1.6,1.9,143,2331
2004-04-04 19:00,4.6,2.0,2.5,141,2540
2004-04-04 20:00,5.2,1.4,1.7, 45,2685
2004-04-04 21:00,4.6,2.6,3.0,101,2774
2004-04-04 22:00,4.4,1.7,2.1,129,2704
2004-04-04 23:00,4.3,2.3,3.0,112,2665
2004-04-05 00:00,4.1,3.7,4.3,132,2800
2004-04-05 01:00,3.9,2.0,3.0,141,2574
2004-04-05 02:00,3.7,1.3,1.8,180,2060
2004-04-05 03:00,3.6,1.6,2.0,190,1988
2004-04-05 04:00,3.6,1.3,1.9,284,1894
2004-04-05 05:00,3.7,2.6,3.9,264,2773
2004-04-05 06:00,3.9,3.0,4.1,285,2839
2004-04-05 07:00,3.2,9.1,10.7,330,2362
2004-04-05 08:00,2.1,10.3,12.9,312,2686
2004-04-05 09:00,1.2,10.1,11.8,308,1975
2004-04-05 10:00,1.0,11.9,13.9,309,2946
2004-04-05 11:00,0.6,11.8,15.3,311,2927
2004-04-05 12:00,0.5,11.8,14.5,312,2918
2004-04-05 13:00,0.0,11.2,13.6,316,2931
2004-04-05 14:00,-0.9,11.8,14.7,321,2774
2004-04-05 15:00,-1.5,12.2,14.8,315,2074
2004-04-05 16:00,-1.4,10.8,12.5,304,2962
2004-04-05 17:00,-0.7,10.4,12.5,298,2716
2004-04-05 18:00,1.0,10.2,12.5,296,2907
2004-04-05 19:00,2.5,10.3,12.0,302,2945
2004-04-05 20:00,2.9,9.1,11.4,294,2953
2004-04-05 21:00,3.7,9.9,12.4,306,2264
2004-04-05 22:00,3.2,11.2,13.9,304,2934
2004-04-05 23:00,2.4,10.4,12.3,314,2819
2004-04-06 00:00,1.3,10.7,13.9, 45,
2004-04-06 01:00,1.0,10.4,12.9,315,2960
2004-04-06 02:00,0.8,9.0,11.7,308,2960
2004-04-06 03:00,0.3,7.9,9.7,301,2959
2004-04-06 04:00,0.0,9.2,10.8,289,2960
2004-04-06 05:00,-0.2,9.1,10.9,283,2958
2004-04-06 06:00,-0.3,9.8,12.5,287,2959
2004-04-06 07:00,-0.3,9.0,10.8,291,2960
2004-04-06 08:00,-0.1,8.1,9.6,298,2959
2004-04-06 09:00,-0.2,11.6,13.7,304,2961
2004-04-06 10:00,-0.6,7.4,9.5,303,2909
2004-04-06 11:00,-0.4,9.6,12.4,299,2950
2004-04-06 12:00,-0.4,10.2,13.1,309,2551
2004-04-06 13:00,0.2,10.5,12.7,303,2763
2004-04-06 14:00,0.3,10.2,12.9,317,2706
2004-04-06 15:00,0.8,9.9,12.2,319,2895
2004-04-06 16:00,1.9,9.0,12.4,323,2846
2004-04-06 17:00,3.2,7.0,9.4,323,2927
2004-04-06 18:00,4.2,7.1,9.0,335,2853
2004-04-06 19:00,5.1,6.6,8.6,334,2765
2004-04-06 20:00,6.0,7.7,9.1,343,2622
2004-04-06 21:00,6.8,9.5,12.4,324,2846
2004-04-06 22:00,6.7,9.4,11.4,330,2946
2004-04-06 23:00,6.1,9.4,11.8,330,2866
2004-04-07 00:00,5.3,10.0,12.9,331,2960
2004-04-07 01:00,4.7,9.1,11.6,335,2960
2004-04-07 02:00,4.5,8.1,9.8,335,2960
2004-04-07 03:00,4.3,6.7,7.8,319,2960
2004-04-07 04:00,4.2,6.4,7.6,296,2960
2004-04-07 05:00,4.0,5.9,7.0,283,2960
2004-04-07 06:00,3.7,5.6,6.5,277,2960
2004-04-07 07:00,3.5,6.3,7.4,268,2960
2004-04-07 08:00,3.4,5.5,6.6,274,2960
2004-04-07 09:00,3.3,7.3,8.5,275,
2004-04-07 10:00,3.3,7.2,8.1,269,2960
2004-04-07 11:00,3.3,7.4,8.7,272,2957
2004-04-07 12:00,3.3,6.9,8.1,269,2883
2004-04-07 13:00,4.0,5.3,6.2,264,2944
2004-04-07 14:00,4.5,5.3,6.4,257,2957
2004-04-07 15:00,4.6,3.7,4.9,225,2958
2004-04-07 16:00,5.7,5.4,6.4,239,2934
2004-04-07 17:00,5.2,3.8,4.7,236,2956
2004-04-07 18:00,5.3,4.6,5.3,212,2867
2004-04-07 19:00,6.0,4.4,5.0,200,2817
2004-04-07 20:00,6.1,4.8,5.4,207,2959
2004-04-07 21:00,5.5,4.8,5.3,191,2953
2004-04-07 22:00,6.6,2.0,5.6,281,2957
2004-04-07 23:00,5.9,1.5,1.9,134,2952
2004-04-08 00:00,5.0,1.9,2.5,264,2959
2004-04-08 01:00,5.4,1.7,2.2,295,2960
2004-04-08 02:00,5.6,2.1,3.0,318,2960
2004-04-08 03:00,5.7,2.1,2.5,302,2960
2004-04-08 04:00,5.0,3.5,4.0,288,2959
2004-04-08 05:00,4.6,3.2,3.6,283,2960
2004-04-08 06:00,4.4,1.9,2.7,305,2960
2004-04-08 07:00,4.2,2.3,3.3,280,2960
2004-04-08 08:00,3.8,4.1,4.7,280,2959
2004-04-08 09:00,3.4,4.5,4.9,268,2959
2004-04-08 10:00,3.1,4.7,5.3,271,2959
2004-04-08 11:00,3.1,2.7,3.5,286,2948
2004-04-08 12:00,3.2,3.6,4.2,284,2950
2004-04-08 13:00,3.5,2.5,2.9,240,2946
2004-04-08 14:00,4.7,2.6,3.4,213,2933
2004-04-08 15:00,4.2,2.4,2.9,187,2902
2004-04-08 16:00,4.3,3.9,4.3,176,2870
2004-04-08 17:00,4.9,4.2,5.7,158,2941
2004-04-08 18:00,5.5,6.2,7.0,155,2938
2004-04-08 19:00,5.4,6.6,7.4,146,2950
2004-04-08 20:00,5.2,6.5,7.4,131,2589
2004-04-08 21:00,5.1,6.8,8.2,137,2955
2004-04-08 22:00,5.2,7.2,8.7,164,2948
2004-04-08 23:00,5.4,6.0,6.7,181,2945
2004-04-09 00:00,5.1,5.2,6.8,181,2939
2004-04-09 01:00,5.1,3.9,5.2,185,2951
2004-04-09 02:00,5.1,4.1,4.7,193,2939
2004-04-09 03:00,4.6,2.6,3.8,190,2928
2004-04-09 04:00,5.3,3.7,4.4,229,2929
2004-04-09 05:00,5.3,4.5,5.1,230,2929
2004-04-09 06:00,4.9,3.0,3.5,241,2913
2004-04-09 07:00,4.5,1.5,2.4,241,2888
2004-04-09 08:00,4.2,0.7,1.1,215,2923
2004-04-09 09:00,4.2,2.0,2.5,220,2900
2004-04-09 10:00,3.8,1.7,2.1,255,2931
2004-04-09 11:00,4.4,1.6,2.0,324,2938
2004-04-09 12:00,4.5,2.8,3.2,321,2945
2004-04-09 13:00,5.3,1.7,2.5, 12,2900
2004-04-09 14:00,5.2,1.9,2.4, 13,2927
2004-04-09 15:00,5.4,2.3,2.7, 19,2935
2004-04-09 16:00,6.0,2.2,2.6, 91,2951
2004-04-09 17:00,6.0,3.0,3.5,112,2952
2004-04-09 18:00,5.6,3.7,4.1,114,2945
2004-04-09 19:00,6.1,4.3,4.9,124,2954
2004-04-09 20:00,6.1,4.1,4.6,165,2954
2004-04-09 21:00,5.8,2.8,3.8,195,2944
2004-04-09 22:00,5.7,3.3,4.0,182,2953
2004-04-09 23:00,7.1,2.2,2.5,253,2959
2004-04-10 00:00,5.7,3.2,4.1,237,2958
2004-04-10 01:00,7.1,5.0,5.6,338,2960
2004-04-10 02:00,6.8,6.0,7.1,343,2960
2004-04-10 03:00,6.2,4.4,5.7,326,2960
2004-04-10 04:00,6.1,6.1,7.6,321,2960
2004-04-10 05:00,5.4,4.2,4.8,295,2960
2004-04-10 06:00,4.9,3.8,4.5,274,2960
2004-04-10 07:00,4.7,3.6,4.2,263,2960
2004-04-10 08:00,4.6,4.8,5.6,248,2960
2004-04-10 09:00,4.4,5.2,6.0,258,2960
2004-04-10 10:00,4.3,5.1,6.1,273,2960
2004-04-10 11:00,4.4,6.5,8.0,270,2922
2004-04-10 12:00,4.1,7.2,8.2,282,2953
2004-04-10 13:00,4.9,5.3,6.3,264,2946
2004-04-10 14:00,5.5,4.2,5.5,265,2677
2004-04-10 15:00,5.7,4.9,5.6,264,2954
2004-04-10 16:00,6.1,5.0,5.8,246,2960
2004-04-10 17:00,6.9,5.2,5.9,244,2955
2004-04-10 18:00,7.1,4.2,5.6,246,2921
2004-04-10 19:00,6.7,4.2,4.6,202,2928
2004-04-10 20:00,8.0,3.0,4.7,210,2915
2004-04-10 21:00,9.7,5.4,7.0,285,2810
2004-04-10 22:00,9.8,5.5,6.9,286,2953
2004-04-10 23:00,8.4,4.2,5.0,286,2956
2004-04-11 00:00,8.4,5.1,5.6,286,2958
2004-04-11 01:00,8.0,4.6,5.6,287,2959
2004-04-11 02:00,7.2,3.5,4.8,290,2959
2004-04-11 03:00,7.4,4.3,4.8,279,2960
2004-04-11 04:00,6.7,3.8,4.8,308,2959
2004-04-11 05:00,4.8,4.8,5.4,353,2959
2004-04-11 06:00,4.7,5.0,5.8, 50,2957
2004-04-11 07:00,4.5,4.7,5.8, 72,2957
2004-04-11 08:00,4.3,4.2,5.1, 78,2957
2004-04-11 09:00,4.2,4.9,5.6, 79,2956
2004-04-11 10:00,4.1,5.5,6.4, 89,2959
2004-04-11 11:00,4.2,3.9,4.9, 91,2882
2004-04-11 12:00,4.3,3.6,4.7, 88,2949
2004-04-11 13:00,4.5,3.1,3.8, 53,2942
2004-04-11 14:00,4.5,3.6,4.4, 33,2949
2004-04-11 15:00,4.4,4.0,4.8, 44,2948
2004-04-11 16:00,4.2,3.6,4.3, 70,2949
2004-04-11 17:00,4.2,3.6,4.2, 41,2947
2004-04-11 18:00,4.3,3.4,4.0, 71,2931
2004-04-11 19:00,4.3,3.1,3.6, 68,2951
2004-04-11 20:00,4.4,4.1,4.7, 63,2949
2004-04-11 21:00,4.3,4.6,5.4, 78,2939
2004-04-11 22:00,4.4,4.6,5.6, 98,2939
2004-04-11 23:00,4.5,5.0,5.8,120,2947
2004-04-12 00:00,4.6,3.5,4.6,115,2947
2004-04-12 01:00,4.6,4.1,4.8,101,2936
2004-04-12 02:00,4.5,4.0,4.6, 94,2922
2004-04-12 03:00,4.6,3.5,4.2, 92,2941
2004-04-12 04:00,4.6,3.5,4.0, 84,2944
2004-04-12 05:00,4.5,3.1,3.6, 57,2938
2004-04-12 06:00,4.4,4.3,5.1, 32,2924
2004-04-12 07:00,4.2,5.5,6.3, 36,2925
2004-04-12 08:00,4.0,7.0,8.2, 35,2918
2004-04-12 09:00,3.8,7.2,9.1, 35,2933
2004-04-12 10:00,3.7,6.8,8.4, 44,2934
2004-04-12 11:00,3.8,7.4,8.5, 35,2857
2004-04-12 12:00,4.0,7.1,8.1, 28,2906
2004-04-12 13:00,4.2,6.4,7.6, 30,2607
2004-04-12 14:00,4.1,6.4,7.3, 32,2911
2004-04-12 15:00,4.2,6.2,7.1, 30,2873
2004-04-12 16:00,4.3,6.5,7.6, 28,2888
2004-04-12 17:00,4.1,7.1,8.1, 30,2908
2004-04-12 18:00,4.1,6.8,7.8, 39,2876
2004-04-12 19:00,4.1,5.9,6.8, 36,2927
2004-04-12 20:00,4.1,5.7,6.6, 35,2930
2004-04-12 21:00,4.2,4.5,5.1, 47,2947
2004-04-12 22:00,4.3,4.2,4.9, 44,2953
2004-04-12 23:00,4.2,4.3,5.1, 61,2952
2004-04-13 00:00,4.3,5.1,5.8, 72,2956
2004-04-13 01:00,4.4,4.8,5.6, 81,2948
2004-04-13 02:00,4.4,4.7,5.7, 80,2925
2004-04-13 03:00,4.4,4.0,4.6, 82,2856
2004-04-13 04:00,4.4,4.2,4.9, 60,2820
2004-04-13 05:00,4.3,6.4,7.6, 66,2760
2004-04-13 06:00,4.3,5.8,6.6, 70,2364
2004-04-13 07:00,4.3,7.6,8.7, 70,2763
2004-04-13 08:00,4.2,7.3,8.5, 62,2021
2004-04-13 09:00,4.2,9.4,11.5, 60,1629
2004-04-13 10:00,3.8,11.1,13.3, 46,2409
2004-04-13 11:00,3.8,10.3,12.2, 50,2655
2004-04-13 12:00,4.3,9.4,12.1, 56,2589
2004-04-13 13:00,4.3,9.8,11.4, 67,2784
2004-04-13 14:00,4.2,9.9,12.0, 76,2705
2004-04-13 15:00,4.0,9.1,10.7, 69,2471
2004-04-13 16:00,4.0,5.9,7.0, 66,1261
2004-04-13 17:00,4.0,5.2,6.2, 41,1726
2004-04-13 18:00,3.9,6.8,8.0, 12,1085
2004-04-13 19:00,3.8,6.6,7.7, 14,1075
2004-04-13 20:00,3.9,6.7,8.0,  7,1088
2004-04-13 21:00,3.7,6.6,7.7, 18, 806
2004-04-13 22:00,3.8,6.5,7.4, 35, 700
2004-04-13 23:00,3.8,5.5,6.5, 31, 581
2004-04-14 00:00,4.3,6.8,8.1,  7, 780
2004-04-14 01:00,7.5,4.0,6.3,122, 253
2004-04-14 02:00,8.2,10.8,12.9,152, 796
2004-04-14 03:00,8.4,9.1,10.7,156, 851
2004-04-14 04:00,8.1,10.3,11.9,162, 306
2004-04-14 05:00,8.1,9.5,11.0,160, 371
2004-04-14 06:00,7.9,10.2,11.5,158, 431
2004-04-14 07:00,8.4,9.1,10.6,171, 813
2004-04-14 08:00,8.4,8.6,9.9,176, 226
2004-04-14 09:00,7.9,6.7,7.7,174, 290
2004-04-14 10:00,8.3,7.1,8.2,173, 241
2004-04-14 11:00,8.2,6.2,7.2,166, 216
2004-04-14 12:00,8.2,5.6,7.5,203, 325
2004-04-14 13:00,7.4,5.1,5.6,180, 389
2004-04-14 14:00,7.7,3.7,7.8,217,1985
2004-04-14 15:00,7.3,1.9,4.9,172, 901
2004-04-14 16:00,7.2,3.5,4.4,129, 458
2004-04-14 17:00,6.9,3.2,4.1, 92, 401
2004-04-14 18:00,6.2,2.5,3.0,115, 973
2004-04-14 19:00,6.2,1.9,2.4, 97,1558
2004-04-14 20:00,6.0,2.3,3.3,336,1629
2004-04-14 21:00,6.5,3.2,3.9, 84, 549
2004-04-14 22:00,6.9,3.5,3.9, 90, 791
2004-04-14 23:00,6.9,3.0,4.6, 72,2262
2004-04-15 00:00,6.5,1.7,2.7,  4,2139
2004-04-15 01:00,6.4,2.3,3.0,359, 633
2004-04-15 02:00,7.1,3.8,4.5, 19, 245
2004-04-15 03:00,6.7,4.4,5.2,  3, 308
2004-04-15 04:00,,,,,
2004-04-15 05:00,6.3,8.5,9.9,  9,1923
2004-04-15 06:00,5.9,9.8,12.2,  4,2276
2004-04-15 07:00,5.6,10.6,12.0,  3,1959
2004-04-15 08:00,5.2,10.7,12.7,  4,1463
2004-04-15 09:00,5.3,9.6,11.4,  9,2191
2004-04-15 10:00,5.1,10.8,12.9, 13,2439
2004-04-15 11:00,4.4,12.4,15.6, 11,2749
2004-04-15 12:00,4.2,13.0,16.3,  8,2793
2004-04-15 13:00,4.5,12.4,14.8, 10,2868
2004-04-15 14:00,4.5,10.5,12.8, 11,2877
2004-04-15 15:00,4.7,8.3,10.1,  4,2868
2004-04-15 16:00,4.9,7.6,8.8,  5,2902
2004-04-15 17:00,5.0,7.5,9.3,  1,2915
2004-04-15 18:00,5.3,7.7,8.9, 11,2924
2004-04-15 19:00,5.4,4.7,5.9, 23,2927
2004-04-15 20:00,5.2,3.8,4.3, 15,2915
2004-04-15 21:00,5.1,3.3,3.8,  1,2921
2004-04-15 22:00,5.4,3.7,4.0, 24,2937
2004-04-15 23:00,6.5,7.5,8.7, 29,2927
2004-04-16 00:00,6.2,6.7,7.6, 15,2959
2004-04-16 01:00,6.5,7.6,8.5, 17,2959
2004-04-16 02:00,6.3,6.7,8.3,359,2950
2004-04-16 03:00,7.1,10.3,13.0,351,2960
2004-04-16 04:00,6.4,9.5,12.2,352,2959
2004-04-16 05:00,5.9,9.9,12.2,353,2957
2004-04-16 06:00,5.4,9.9,12.1,350,2960
2004-04-16 07:00,5.0,10.1,12.7,353,2957
2004-04-16 08:00,4.4,8.7,10.9,344,2960
2004-04-16 09:00,4.2,10.0,12.6,  0,2959
2004-04-16 10:00,4.0,10.9,13.6,  3,2951
2004-04-16 11:00,3.8,11.1,13.5,  2,2435
2004-04-16 12:00,3.6,11.9,14.0,  4,2950
2004-04-16 13:00,3.6,10.6,12.4,  3,2706
2004-04-16 14:00,4.0,10.4,12.7,  3,2891
2004-04-16 15:00,4.3,9.2,10.5,  4,2739
2004-04-16 16:00,4.6,7.6,8.7,  8,2943
2004-04-16 17:00,,,,,
2004-04-16 18:00,5.3,6.7,7.8, 39,2950
2004-04-16 19:00,5.5,5.2,6.1, 37,2950
2004-04-16 20:00,5.3,4.2,5.0, 69,2957
2004-04-16 21:00,4.7,5.1,6.0, 94,2957